sat.trackr.live / text

‹ back to catalog

STARLINK-3200

NORAD 49753 · 2021-115AF

PAYLOAD ACTIVE UNKNOWN

§ Identity

Operator
Country
US
Launch date
2021-12-02
Launch site
AFETR
Launch vehicle
Mass (kg)
RCS (m²)

Purposes: comms

External: N2YO · Heavens-Above · Gunter

§ Orbital elements

Epoch: 2026-09-09T15:11:35.495808Z

Period
93.85 min
Inclination
53.1621°
Eccentricity
0.0001460
Mean motion
15.34387002 rev/d
Perigee alt
461.7 km
Apogee alt
463.7 km
Semi-major
6,840.9 km
B*
-2.5139e-5
RAAN
32.5502°
Arg perigee
80.2325°
Mean anomaly
279.8842°
Rev number
26,345

§ Raw data

STARLINK-32001 49753U 21115AF  26252.63304972 -.00001225  00000+0 -25139-4 0  99942 49753  53.1621  32.5502 0001460  80.2325 279.8842 15.34387002263459

JSON: /api/v1/satellites/49753 · /tle

For live sub-satellite position, see the globe view (requires WebGL).

§ Visibility from observer

Set your observer location to see the next 7 days of passes ≥ 10°. The values pass through the URL so the page stays shareable.

No JS? Fill the form by hand. The geolocation button needs JavaScript.